| time (UTC) | temp C | wind direction | speed KPH | gust KPH | rain 1hr cm | rain 24hr cm | rain mn cm | humidity % | barometer mb |
| 20260504060213 | 16 | 308 | 12.9 | 17.7 | 0.00 | 0.00 | 0.00 | 40 | 1012.9 |
| 20260504050214 | 17 | 305 | 14.5 | 17.7 | 0.00 | 0.00 | 0.00 | 37 | 1013.0 |
| 20260504045003 | 17 | 303 | 14.5 | 16.1 | 0.00 | 0.00 | 0.00 | 38 | 1013.1 |
| 20260504044003 | 18 | 297 | 11.3 | 16.1 | 0.00 | 0.00 | 0.00 | 37 | 1013.1 |
| 20260504043003 | 17 | 302 | 8.0 | 12.9 | 0.00 | 0.00 | 0.00 | 39 | 1013.2 |
| 20260504042003 | 14 | 326 | 4.8 | 6.4 | 0.00 | 0.00 | 0.00 | 47 | 1013.2 |
| 20260504041003 | 15 | 335 | 4.8 | 8.0 | 0.00 | 0.00 | 0.00 | 44 | 1013.2 |
| 20260504040003 | 14 | 335 | 6.4 | 9.7 | 0.00 | 0.00 | 0.00 | 47 | 1013.2 |
| 20260504035003 | 15 | 331 | 4.8 | 8.0 | 0.00 | 0.00 | 0.00 | 45 | 1013.0 |
| 20260504034004 | 16 | 330 | 3.2 | 4.8 | 0.00 | 0.00 | 0.00 | 43 | 1012.9 |
| 20260504033003 | 17 | 270 | 0.0 | 3.2 | 0.00 | 0.00 | 0.00 | 39 | 1012.9 |
| 20260504032003 | 18 | 262 | 0.0 | 3.2 | 0.00 | 0.00 | 0.00 | 37 | 1012.9 |
| 20260504031003 | 18 | 0 | 0.0 | 0.0 | 0.00 | 0.00 | 0.00 | 35 | 1012.9 |
| 20260504030003 | 20 | 0 | 0.0 | 0.0 | 0.00 | 0.00 | 0.00 | 33 | 1012.8 |
| 20260504025003 | 21 | 0 | 0.0 | 0.0 | 0.00 | 0.00 | 0.00 | 31 | 1012.8 |
| 20260504024003 | 21 | 243 | 0.0 | 4.8 | 0.00 | 0.00 | 0.00 | 30 | 1012.7 |
| 20260504023003 | 22 | 243 | 0.0 | 3.2 | 0.00 | 0.00 | 0.00 | 29 | 1012.7 |
| 20260504022213 | 22 | 214 | 0.0 | 1.6 | 0.00 | 0.00 | 0.00 | 29 | 1012.7 |
| 20260504021213 | 22 | 177 | 1.6 | 4.8 | 0.00 | 0.00 | 0.00 | 28 | 1012.9 |
| 20260504020003 | 21 | 159 | 1.6 | 6.4 | 0.00 | 0.00 | 0.00 | 28 | 1012.9 |
| 20260504015003 | 22 | 184 | 4.8 | 9.7 | 0.00 | 0.00 | 0.00 | 28 | 1012.9 |
| 20260504014003 | 22 | 178 | 6.4 | 12.9 | 0.00 | 0.00 | 0.00 | 27 | 1013.0 |
| 20260504013003 | 22 | 164 | 1.6 | 8.0 | 0.00 | 0.00 | 0.00 | 26 | 1013.1 |
| 20260504012003 | 22 | 217 | 3.2 | 11.3 | 0.00 | 0.00 | 0.00 | 26 | 1013.2 |
| 20260504011003 | 22 | 177 | 1.6 | 6.4 | 0.00 | 0.00 | 0.00 | 26 | 1013.3 |
| 20260504010004 | 22 | 227 | 4.8 | 12.9 | 0.00 | 0.00 | 0.00 | 25 | 1013.4 |
| 20260504005003 | 22 | 213 | 6.4 | 12.9 | 0.00 | 0.00 | 0.00 | 25 | 1013.4 |
| 20260504004003 | 22 | 198 | 1.6 | 6.4 | 0.00 | 0.00 | 0.00 | 25 | 1013.5 |
| 20260504003003 | 22 | 191 | 6.4 | 12.9 | 0.00 | 0.00 | 0.00 | 25 | 1013.6 |
| 20260504002212 | 22 | 162 | 4.8 | 12.9 | 0.00 | 0.00 | 0.00 | 26 | 1013.6 |
| 20260504001003 | 22 | 174 | 6.4 | 16.1 | 0.00 | 0.00 | 0.00 | 25 | 1013.8 |
| 20260504000003 | 22 | 196 | 6.4 | 14.5 | 0.00 | 0.00 | 0.00 | 24 | 1013.9 |
| 20260503235003 | 22 | 178 | 4.8 | 9.7 | 0.00 | 0.00 | 0.00 | 24 | 1014.0 |
| 20260503234003 | 22 | 198 | 4.8 | 11.3 | 0.00 | 0.00 | 0.00 | 26 | 1014.0 |
| 20260503233003 | 22 | 207 | 4.8 | 14.5 | 0.00 | 0.00 | 0.00 | 24 | 1014.2 |
| 20260503232003 | 22 | 192 | 6.4 | 14.5 | 0.00 | 0.00 | 0.00 | 23 | 1014.3 |
| 20260503231003 | 22 | 208 | 8.0 | 17.7 | 0.00 | 0.00 | 0.00 | 23 | 1014.5 |
| 20260503230004 | 22 | 221 | 9.7 | 17.7 | 0.00 | 0.00 | 0.00 | 23 | 1014.6 |
| 20260503225214 | 22 | 191 | 4.8 | 14.5 | 0.00 | 0.00 | 0.00 | 23 | 1014.7 |
| 20260503224003 | 22 | 131 | 8.0 | 16.1 | 0.00 | 0.00 | 0.00 | 25 | 1014.8 |
| 20260503223003 | 22 | 181 | 11.3 | 22.5 | 0.00 | 0.00 | 0.00 | 24 | 1015.1 |
| 20260503222003 | 22 | 176 | 8.0 | 20.9 | 0.00 | 0.00 | 0.00 | 24 | 1015.2 |
| 20260503221214 | 22 | 195 | 9.7 | 20.9 | 0.00 | 0.00 | 0.00 | 21 | 1015.4 |
| 20260503220003 | 22 | 86 | 4.8 | 11.3 | 0.00 | 0.00 | 0.00 | 23 | 1015.4 |
| 20260503215003 | 22 | 179 | 4.8 | 12.9 | 0.00 | 0.00 | 0.00 | 24 | 1015.5 |
| 20260503214213 | 22 | 199 | 6.4 | 17.7 | 0.00 | 0.00 | 0.00 | 24 | 1015.6 |
| 20260503213003 | 22 | 163 | 4.8 | 17.7 | 0.00 | 0.00 | 0.00 | 25 | 1015.6 |
| 20260503212003 | 22 | 108 | 3.2 | 11.3 | 0.00 | 0.00 | 0.00 | 29 | 1015.7 |
| 20260503211003 | 21 | 145 | 4.8 | 14.5 | 0.00 | 0.00 | 0.00 | 26 | 1015.9 |
| 20260503210003 | 21 | 104 | 6.4 | 14.5 | 0.00 | 0.00 | 0.00 | 27 | 1015.9 |
| 20260503205003 | 21 | 104 | 1.6 | 8.0 | 0.00 | 0.00 | 0.00 | 26 | 1016.1 |
| 20260503204213 | 21 | 168 | 3.2 | 11.3 | 0.00 | 0.00 | 0.00 | 24 | 1016.3 |
| 20260503203003 | 21 | 241 | 6.4 | 14.5 | 0.00 | 0.00 | 0.00 | 26 | 1016.4 |
| 20260503202003 | 21 | 235 | 6.4 | 14.5 | 0.00 | 0.00 | 0.00 | 27 | 1016.3 |
| 20260503201003 | 21 | 238 | 4.8 | 14.5 | 0.00 | 0.00 | 0.00 | 27 | 1016.5 |
| 20260503200003 | 21 | 245 | 8.0 | 16.1 | 0.00 | 0.00 | 0.00 | 26 | 1016.7 |
| 20260503195003 | 21 | 280 | 3.2 | 16.1 | 0.00 | 0.00 | 0.00 | 27 | 1016.7 |
| 20260503194003 | 20 | 296 | 4.8 | 14.5 | 0.00 | 0.00 | 0.00 | 24 | 1016.9 |
| 20260503193003 | 21 | 289 | 8.0 | 16.1 | 0.00 | 0.00 | 0.00 | 24 | 1017.0 |
| 20260503192213 | 20 | 288 | 3.2 | 11.3 | 0.00 | 0.00 | 0.00 | 27 | 1017.0 |
| 20260503191003 | 21 | 346 | 3.2 | 14.5 | 0.00 | 0.00 | 0.00 | 27 | 1017.1 |
| 20260503190215 | 21 | 331 | 1.6 | 11.3 | 0.00 | 0.00 | 0.00 | 25 | 1017.1 |
| 20260503185213 | 20 | 310 | 4.8 | 12.9 | 0.00 | 0.00 | 0.00 | 26 | 1017.3 |
| 20260503184003 | 20 | 42 | 3.2 | 14.5 | 0.00 | 0.00 | 0.00 | 27 | 1017.3 |
| 20260503183212 | 21 | 130 | 1.6 | 8.0 | 0.00 | 0.00 | 0.00 | 25 | 1017.5 |
| 20260503182212 | 20 | 166 | 1.6 | 11.3 | 0.00 | 0.00 | 0.00 | 25 | 1017.4 |
| 20260503181004 | 20 | 43 | 3.2 | 11.3 | 0.00 | 0.00 | 0.00 | 25 | 1017.6 |
| 20260503180214 | 20 | 30 | 3.2 | 14.5 | 0.00 | 0.00 | 0.00 | 25 | 1017.6 |
| 20260503175214 | 20 | 43 | 4.8 | 14.5 | 0.00 | 0.00 | 0.00 | 25 | 1017.6 |
| 20260503174003 | 20 | 23 | 6.4 | 16.1 | 0.00 | 0.00 | 0.00 | 24 | 1017.6 |
| 20260503173003 | 19 | 30 | 6.4 | 14.5 | 0.00 | 0.00 | 0.00 | 25 | 1017.7 |
| 20260503172003 | 19 | 31 | 6.4 | 17.7 | 0.00 | 0.00 | 0.00 | 25 | 1017.7 |
| 20260503171003 | 19 | 21 | 8.0 | 17.7 | 0.00 | 0.00 | 0.00 | 25 | 1017.7 |
| 20260503170214 | 19 | 35 | 9.7 | 17.7 | 0.00 | 0.00 | 0.00 | 25 | 1017.7 |
| 20260503151003 | 17 | 360 | 4.8 | 12.9 | 0.00 | 0.00 | 0.00 | 30 | 1018.0 |
| 20260503131003 | 11 | 343 | 6.4 | 9.7 | 0.00 | 0.00 | 0.00 | 50 | 1017.9 |
| 20260503130214 | 11 | 344 | 8.0 | 11.3 | 0.00 | 0.00 | 0.00 | 50 | 1017.9 |
| 20260503081003 | 12 | 318 | 1.6 | 8.0 | 0.00 | 0.00 | 0.00 | 53 | 1018.3 |